Location: Unspecified
(0.0000°N, 0.0000°E)
Time: 09:22:18
(UTC+00:00)

Altair - Pass Details

Date: 03 October 2023
Orbit: 1501 x 1682 km, 47.2° (Epoch: 06 December)

Event Time Altitude Azimuth Distance (km) Brightness Sun altitude
Rises 12:12:03 0° 286° (WNW) 4,899 10.2 83.0°
Reaches altitude 10° 12:16:29 10° 270° (W) 3,889 9.9 82.1°
Maximum altitude 12:23:01 19° 228° (SW) 3,155 9.6 80.6°
Drops below altitude 10° 12:29:27 10° 185° (S) 3,801 9.8 79.2°
Sets 12:33:47 0° 168° (SSE) 4,753 10.1 78.2°
